Home > Time Zones > World Clock > Weather > Japan > Kobe > Past weeks

Flag for Japan Weather past 2 weeks in Kobe, Japan

Now
81 °F

Passing clouds.


Feels Like: 81 °F
Forecast: 57 / 83 °F
Wind: 10 mph from Southwest

Location: Osaka International Airport

Current Time: May 26, 2015 at 12:54:31 PM

Latest Report: May 26, 2015 at 12:00 PM


Visibility: N/A

Pressure: 29.80 "Hg

Humidity: 48%

Dew point: 59 °F

Location of KobeLocation

Historic Weather in Kobe — Graph

°F

Kobe temperature yesterday

Maximum temperature yesterday: 82 °F (at 11:00 AM)
Minimum temperature yesterday: 61 °F (at 5:00 AM)
Average temperature yesterday: 76 °F

Past Weeks' High & Low Weather Summary

 TemperatureHumidityPressure
High82 °F (May 15, 12:00 PM)100% (May 12, 6:00 PM)30.15 "Hg (May 12, 6:00 PM)
Low54 °F (May 21, 5:00 AM)19% (May 11, 1:00 PM)29.53 "Hg (May 12, 5:00 PM)
Average72 °F58%29.80 "Hg
* Reported May 11 11:00 AM — May 26 11:00 AM, Kobe, Weather by CustomWeather, © 2015

Note: Actual official high and low records may vary slightly from our data, if they occured in-between our weather recording intervals... More about our weather records

Advertising

Kobe weather history for previous 24 hours

 ConditionsComfort  
Time TempWeatherWind HumidityBarometerVisibility
11:00 AM
Tue, May 26
81 °FPassing clouds.6 mph51%29.80 "HgN/A
10:00 AM77 °FPassing clouds.7 mph57%29.83 "HgN/A
9:00 AM75 °FPassing clouds.6 mph61%29.83 "HgN/A
8:00 AM73 °FPassing clouds.2 mph65%29.86 "HgN/A
7:00 AM70 °FPassing clouds.6 mph73%29.83 "HgN/A
6:00 AM64 °FPassing clouds.2 mph83%29.83 "HgN/A
5:00 AM64 °FSunny.3 mph83%29.80 "Hg10 mi
8:00 PM
Mon, May 25
73 °FPassing clouds.5 mph57%29.77 "HgN/A
7:00 PM75 °FPartly sunny.5 mph50%29.74 "HgN/A
6:00 PM81 °FPartly sunny.8 mph39%29.71 "HgN/A
5:00 PM82 °FPartly sunny.8 mph40%29.71 "HgN/A
4:00 PM82 °FPartly sunny.6 mph37%29.71 "HgN/A
3:00 PM82 °FBroken clouds.5 mph37%29.71 "HgN/A
2:00 PM82 °FBroken clouds.5 mph40%29.71 "HgN/A
1:00 PM81 °FBroken clouds.6 mph37%29.74 "HgN/A
12:00 PM82 °FBroken clouds.6 mph32%29.74 "HgN/A
Weather by CustomWeather, © 2015

See weather overviewHow to use our weather pages